Weather History for Hawthorne, CA

Change the Weather History Date:

Tuesday, March 5, 2013

  Actual Average Record
Temperature  
Mean Temperature 58 °F -  
Max Temperature 62 °F 65 °F 81 °F (2007)
Min Temperature 53 °F 50 °F 35 °F (1945)
Degree Days  
Heating Degree Days 8    
Growing Degree Days 8 (Base 50)    
Moisture  
Dew Point 49 °F    
Average Humidity 75    
Maximum Humidity 88    
Minimum Humidity 62    
Precipitation  
Precipitation 0.00 in - - ()
Sea Level Pressure  
Sea Level Pressure 30.10 in    
Wind  
Wind Speed 3 mph (WSW)    
Max Wind Speed 12 mph    
Max Gust Speed -    
Visibility 8 miles    
Events      
Averages and records for this station are not official NWS values.
T = Trace of Precipitation, MM = Missing Value Source: NWS Daily Summary

Daily Weather History Graph

Daily Weather History Graph

Search for Another Location

Airport:

Trip Planner

Search our weather history database for the weather conditions in past years. The results will help you decide how hot, cold, wet, or windy it might be!

Date:

Astronomy

Mar. 05, 2013 Rise Set
Actual Time 6:16 AM PST 5:53 PM PST
Civil Twilight 5:51 AM PST 6:18 PM PST
Nautical Twilight 5:22 AM PST 6:47 PM PST
Astronomical Twilight 4:53 AM PST 7:16 PM PST
Moon 1:21 AM PST (3/5) 11:49 AM PST (3/5)
Length of Visible Light 12h 26m
Length of Day
11h 36m
Last Quarter, 39% of the Moon is Illuminated
Mar 5
Last Quarter
Mar 11
New
Mar 19
First Quarter
Mar 27
Full
Apr 2
Last Quarter

Hourly Weather History & Observations

Time (PST) Temp. Dew Point Humidity Pressure Visibility Wind Dir Wind Speed Gust Speed Precip Events Conditions
1:13 AM 53.6 °F 50.0 °F 88% 30.11 in 7.0 mi Calm Calm - N/A   Mostly Cloudy
1:53 AM 55.0 °F 51.1 °F 86% 30.09 in 7.0 mi Calm Calm - N/A   Overcast
2:53 AM 55.9 °F 51.1 °F 84% 30.09 in 5.0 mi Calm Calm - N/A   Haze
3:53 AM 55.9 °F 51.1 °F 84% 30.09 in 5.0 mi Calm Calm - N/A   Haze
5:53 AM 55.9 °F 51.1 °F 84% 30.11 in 6.0 mi Calm Calm - N/A   Haze
6:53 AM 55.9 °F 51.1 °F 84% 30.10 in 4.0 mi SE 3.5 mph - N/A   Haze
7:53 AM 57.0 °F 50.0 °F 77% 30.11 in 4.0 mi ESE 4.6 mph - N/A   Haze
8:49 AM 57.2 °F 50.0 °F 77% 30.11 in 4.0 mi Calm Calm - N/A   Haze
8:53 AM 57.0 °F 50.0 °F 77% 30.12 in 4.0 mi Calm Calm - N/A   Haze
9:53 AM 57.9 °F 50.0 °F 75% 30.13 in 4.0 mi Calm Calm - N/A   Haze
10:53 AM 57.9 °F 51.1 °F 78% 30.12 in 5.0 mi WNW 5.8 mph - N/A   Haze
11:53 AM 57.9 °F 51.1 °F 78% 30.10 in 6.0 mi West 4.6 mph - N/A   Haze
12:22 PM 60.8 °F 50.0 °F 68% 30.09 in 6.0 mi Calm Calm - N/A   Haze
12:34 PM 60.8 °F 50.0 °F 68% 30.09 in 6.0 mi Calm Calm - N/A   Haze
12:53 PM 62.1 °F 48.9 °F 62% 30.08 in 6.0 mi ESE 3.5 mph - N/A   Haze
1:53 PM 61.0 °F 50.0 °F 67% 30.06 in 9.0 mi WSW 9.2 mph - N/A   Overcast
2:53 PM 59.0 °F 50.0 °F 72% 30.05 in 10.0 mi WSW 10.4 mph - N/A   Overcast
3:53 PM 57.9 °F 48.9 °F 72% 30.05 in 10.0 mi WSW 9.2 mph - N/A   Overcast
4:53 PM 57.0 °F 48.9 °F 74% 30.05 in 10.0 mi West 11.5 mph - N/A   Overcast
5:53 PM 55.9 °F 48.0 °F 75% 30.07 in 10.0 mi West 9.2 mph - N/A   Overcast
6:53 PM 55.9 °F 48.0 °F 75% 30.08 in 10.0 mi West 5.8 mph - N/A   Overcast
7:53 PM 55.9 °F 46.9 °F 72% 30.09 in 10.0 mi SW 5.8 mph - N/A   Overcast
8:53 PM 55.9 °F 48.0 °F 75% 30.10 in 10.0 mi WSW 8.1 mph - N/A   Overcast
9:24 PM 55.4 °F 48.2 °F 77% 30.10 in 10.0 mi West 11.5 mph - N/A   Overcast
9:53 PM 55.0 °F 46.9 °F 74% 30.12 in 10.0 mi WSW 8.1 mph - N/A   Overcast
10:00 PM 55.4 °F 46.4 °F 72% 30.12 in 10.0 mi West 9.2 mph - N/A   Overcast
10:53 PM 54.0 °F 45.0 °F 72% 30.13 in 10.0 mi WSW 11.5 mph - N/A   Overcast
11:15 PM 53.6 °F 44.6 °F 72% 30.13 in 10.0 mi West 9.2 mph - N/A   Overcast
11:49 PM 53.6 °F 44.6 °F 72% 30.14 in 10.0 mi WSW 10.4 mph - N/A   Overcast
11:53 PM 54.0 °F 44.1 °F 69% 30.14 in 10.0 mi WSW 11.5 mph - N/A   Overcast